User: anonymous   Login
Location: Sungai Laei
(2.6000°N, 113.7167°E)
Time: 04:38:53
(UTC+00:00)
Language:

H-2A R/B - Orbit

View from above orbital plane
View from above orbital plane
View from above satellite
View from above satellite

Ground track
Ground track

The orbit data is extracted from the following two-line orbital elements,

1 36105U 09066B   22091.15461159 0.00006500  00000-0  32257-3 0    08
2 36105  97.3261  77.7070 0032626  15.3746 344.6253 15.17269400    00
Epoch (UTC): 01 April 2022 03:42:38
Eccentricity: 0.0032626
inclination: 97.3261°
perigee height: 491 km
apogee height: 536 km
right ascension of ascending node: 77.7070°
argument of perigee: 15.3746°
revolutions per day: 15.17269400
mean anomaly at epoch: 344.6253°
orbit number at epoch: 0

The dashed part of the orbit path shows where the satellite is in the earth's shadow,  

DLR